sat.trackr.live / text

‹ back to catalog

STARLINK-5794

NORAD 56006 · 2023-042W

PAYLOAD ACTIVE UNKNOWN

§ Identity

Operator
Country
US
Launch date
2023-03-24
Launch site
AFETR
Launch vehicle
Mass (kg)
RCS (m²)

Purposes: comms

External: N2YO · Heavens-Above · Gunter

§ Orbital elements

Epoch: 2026-05-25T04:00:03.998880Z

Period
94.69 min
Inclination
43.0009°
Eccentricity
0.0001574
Mean motion
15.20800268 rev/d
Perigee alt
502.3 km
Apogee alt
504.5 km
Semi-major
6,881.6 km
B*
1.9874e-3
RAAN
354.9888°
Arg perigee
238.6256°
Mean anomaly
356.7664°
Rev number
560

§ Raw data

STARLINK-57941 56006U 23042W   26145.16671295  .00044686  00000+0  19874-2 0  99912 56006  43.0009 354.9888 0001574 238.6256 356.7664 15.20800268  5609

JSON: /api/v1/satellites/56006 · /tle

For live sub-satellite position, see the globe view (requires WebGL).

§ Visibility from observer

Set your observer location to see the next 7 days of passes ≥ 10°. The values pass through the URL so the page stays shareable.

No JS? Fill the form by hand. The geolocation button needs JavaScript.